User: anonymous   Login
Location: Boullarre
(49.1305°N, 3.0047°E)
Time: 00:00:23
(UTC+00:00)
Language:

SKYMED 2 - Orbit

View from above orbital plane
View from above orbital plane
View from above satellite
View from above satellite

Ground track
Ground track

The orbit data is extracted from the following two-line orbital elements,

1 32376U 07059A   24201.57469632  .00001258  00000-0  16454-3 0  9992
2 32376  97.8872  24.2396 0001502  89.7906 270.3479 14.82148766898663
Epoch (UTC): 19 July 2024 13:47:33
Eccentricity: 0.0001502
inclination: 97.8872°
perigee height: 621 km
apogee height: 623 km
right ascension of ascending node: 24.2396°
argument of perigee: 89.7906°
revolutions per day: 14.82148766
mean anomaly at epoch: 270.3479°
orbit number at epoch: 89866

The dashed part of the orbit path shows where the satellite is in the earth's shadow,  

DLR